Tiempo cada hora Barlinek

Hoy, 15 Mayo, Sábado

Tiempo Temperatura Precipitaciones Viento Presión Humedad
00:00 +7°C° 0.3 mm 4 mps 748 mmHg 95%
01:00 +6°C° 0 mm 4 mps 748 mmHg 96%
02:00 +7°C° 0.1 mm 3 mps 749 mmHg 95%
03:00 +5°C° 0.1 mm 3 mps 749 mmHg 95%
04:00 +4°C° 0.1 mm 3 mps 749 mmHg 95%
05:00 +7°C° 0 mm 2 mps 749 mmHg 91%
06:00 +8°C° 0 mm 2 mps 749 mmHg 87%
07:00 +10°C° 0 mm 2 mps 749 mmHg 83%
08:00 +13°C° 0 mm 2 mps 749 mmHg 77%
09:00 +13°C° 0 mm 3 mps 749 mmHg 72%
10:00 +16°C° 0 mm 3 mps 749 mmHg 66%
11:00 +17°C° 0.3 mm 3 mps 749 mmHg 64%
12:00 +17°C° 0.3 mm 3 mps 748 mmHg 62%
13:00 +18°C° 0.3 mm 4 mps 748 mmHg 61%
14:00 +18°C° 0.3 mm 3 mps 748 mmHg 62%
15:00 +17°C° 0.3 mm 3 mps 748 mmHg 64%
16:00 +17°C° 0.3 mm 3 mps 747 mmHg 66%
17:00 +16°C° 0.5 mm 3 mps 747 mmHg 71%
18:00 +14°C° 0.5 mm 3 mps 747 mmHg 77%
19:00 +12°C° 0.5 mm 3 mps 747 mmHg 82%
20:00 +12°C° 0.1 mm 3 mps 747 mmHg 85%
21:00 +11°C° 0.1 mm 3 mps 747 mmHg 88%
22:00 +10°C° 0.1 mm 3 mps 747 mmHg 91%
23:00 +10°C° 0.1 mm 2 mps 747 mmHg 92%

Mañana, 16 Mayo, Domingo

Tiempo Temperatura Precipitaciones Viento Presión Humedad
00:00 +9°C° 0.1 mm 2 mps 747 mmHg 93%
01:00 +9°C° 0.1 mm 2 mps 747 mmHg 94%
02:00 +9°C° 0 mm 2 mps 747 mmHg 94%
03:00 +9°C° 0 mm 2 mps 747 mmHg 94%
04:00 +9°C° 0 mm 2 mps 747 mmHg 95%
05:00 +9°C° 0 mm 3 mps 747 mmHg 92%
06:00 +10°C° 0 mm 3 mps 747 mmHg 90%
07:00 +11°C° 0 mm 4 mps 747 mmHg 87%
08:00 +12°C° 0 mm 4 mps 747 mmHg 80%
09:00 +13°C° 0 mm 4 mps 747 mmHg 72%
10:00 +14°C° 0 mm 5 mps 747 mmHg 64%
11:00 +15°C° 0.2 mm 5 mps 747 mmHg 65%
12:00 +15°C° 0.2 mm 5 mps 747 mmHg 65%
13:00 +15°C° 0.2 mm 5 mps 746 mmHg 65%
14:00 +15°C° 0.2 mm 4 mps 746 mmHg 64%
15:00 +15°C° 0.2 mm 4 mps 746 mmHg 63%
16:00 +15°C° 0.2 mm 4 mps 746 mmHg 63%
17:00 +14°C° 0.1 mm 3 mps 746 mmHg 68%
18:00 +14°C° 0.1 mm 2 mps 746 mmHg 73%
19:00 +13°C° 0.1 mm 2 mps 746 mmHg 78%
20:00 +12°C° 0 mm 2 mps 746 mmHg 81%
21:00 +10°C° 0 mm 2 mps 746 mmHg 84%
22:00 +9°C° 0 mm 2 mps 746 mmHg 87%
23:00 +9°C° 0 mm 2 mps 746 mmHg 89%

Pasado mañana, 17 Mayo, Lunes

Tiempo Temperatura Precipitaciones Viento Presión Humedad
00:00 +8°C° 0 mm 2 mps 746 mmHg 91%
01:00 +8°C° 0 mm 2 mps 746 mmHg 93%
02:00 +8°C° 0 mm 2 mps 746 mmHg 94%
03:00 +8°C° 0 mm 2 mps 746 mmHg 94%
04:00 +8°C° 0 mm 2 mps 746 mmHg 95%
05:00 +9°C° 0 mm 2 mps 746 mmHg 92%
06:00 +10°C° 0 mm 2 mps 746 mmHg 90%
07:00 +10°C° 0 mm 3 mps 746 mmHg 87%
08:00 +12°C° 0.1 mm 3 mps 746 mmHg 81%
09:00 +13°C° 0.1 mm 4 mps 746 mmHg 74%
10:00 +14°C° 0.1 mm 4 mps 746 mmHg 67%
11:00 +15°C° 0.3 mm 4 mps 746 mmHg 64%
12:00 +17°C° 0.3 mm 4 mps 746 mmHg 61%
13:00 +16°C° 0.3 mm 5 mps 746 mmHg 59%
14:00 +16°C° 0.3 mm 5 mps 746 mmHg 62%
15:00 +15°C° 0.3 mm 5 mps 746 mmHg 66%
16:00 +15°C° 0.3 mm 5 mps 746 mmHg 69%
17:00 +14°C° 0.1 mm 5 mps 746 mmHg 73%
18:00 +13°C° 0.1 mm 4 mps 746 mmHg 78%
19:00 +12°C° 0.1 mm 4 mps 747 mmHg 82%
20:00 +11°C° 0 mm 4 mps 747 mmHg 86%
21:00 +10°C° 0 mm 4 mps 747 mmHg 90%
22:00 +8°C° 0 mm 4 mps 747 mmHg 94%
23:00 +9°C° 0 mm 3 mps 747 mmHg 95%

18 Mayo, Martes

Tiempo Temperatura Precipitaciones Viento Presión Humedad
00:00 +8°C° 0 mm 3 mps 747 mmHg 95%
01:00 +8°C° 0 mm 3 mps 747 mmHg 95%
02:00 +7°C° 0.1 mm 4 mps 747 mmHg 95%
03:00 +7°C° 0.1 mm 4 mps 747 mmHg 95%
04:00 +8°C° 0.1 mm 4 mps 747 mmHg 95%
05:00 +8°C° 0 mm 5 mps 747 mmHg 93%
06:00 +8°C° 0 mm 5 mps 748 mmHg 91%
07:00 +8°C° 0 mm 5 mps 748 mmHg 89%
08:00 +9°C° 0 mm 5 mps 748 mmHg 84%
09:00 +10°C° 0 mm 5 mps 749 mmHg 79%
10:00 +12°C° 0 mm 5 mps 749 mmHg 74%
11:00 +13°C° 0.1 mm 5 mps 749 mmHg 69%
12:00 +14°C° 0.1 mm 5 mps 749 mmHg 64%
13:00 +15°C° 0.1 mm 5 mps 749 mmHg 59%
14:00 +15°C° 0 mm 5 mps 749 mmHg 60%
15:00 +15°C° 0 mm 5 mps 749 mmHg 61%
16:00 +14°C° 0 mm 4 mps 750 mmHg 63%
17:00 +13°C° 0 mm 4 mps 750 mmHg 67%
18:00 +13°C° 0 mm 3 mps 750 mmHg 71%
19:00 +12°C° 0 mm 3 mps 750 mmHg 76%
20:00 +11°C° 0 mm 3 mps 751 mmHg 81%
21:00 +9°C° 0 mm 3 mps 751 mmHg 86%
22:00 +8°C° 0 mm 3 mps 751 mmHg 90%
23:00 +8°C° 0 mm 3 mps 752 mmHg 92%

19 Mayo, Miércoles

Tiempo Temperatura Precipitaciones Viento Presión Humedad
00:00 +7°C° 0 mm 3 mps 752 mmHg 93%
01:00 +7°C° 0 mm 3 mps 752 mmHg 95%
02:00 +5°C° 0 mm 3 mps 752 mmHg 95%
03:00 +5°C° 0 mm 3 mps 752 mmHg 95%
04:00 +5°C° 0 mm 3 mps 752 mmHg 96%
05:00 +6°C° 0 mm 4 mps 753 mmHg 90%
06:00 +7°C° 0 mm 4 mps 753 mmHg 85%
07:00 +8°C° 0 mm 5 mps 753 mmHg 79%
08:00 +9°C° 0 mm 5 mps 754 mmHg 74%
09:00 +12°C° 0 mm 5 mps 754 mmHg 68%
10:00 +13°C° 0 mm 6 mps 754 mmHg 62%
11:00 +13°C° 0.1 mm 5 mps 754 mmHg 61%
12:00 +13°C° 0.1 mm 5 mps 754 mmHg 60%
13:00 +14°C° 0.1 mm 5 mps 754 mmHg 59%
14:00 +14°C° 0.1 mm 5 mps 754 mmHg 60%
15:00 +14°C° 0.1 mm 5 mps 753 mmHg 62%
16:00 +14°C° 0.1 mm 6 mps 753 mmHg 64%
17:00 +13°C° 0.4 mm 5 mps 754 mmHg 71%
18:00 +12°C° 0.4 mm 4 mps 754 mmHg 77%
19:00 +11°C° 0.4 mm 3 mps 754 mmHg 84%
20:00 +10°C° 0.1 mm 3 mps 754 mmHg 87%
21:00 +9°C° 0.1 mm 3 mps 754 mmHg 91%
22:00 +8°C° 0.1 mm 3 mps 754 mmHg 94%
23:00 +8°C° 0 mm 3 mps 754 mmHg 95%

20 Mayo, Jueves

Tiempo Temperatura Precipitaciones Viento Presión Humedad
00:00 +7°C° 0 mm 3 mps 754 mmHg 95%
01:00 +7°C° 0 mm 3 mps 754 mmHg 96%
02:00 +5°C° 0 mm 3 mps 754 mmHg 96%
03:00 +5°C° 0 mm 3 mps 754 mmHg 96%
04:00 +5°C° 0 mm 3 mps 754 mmHg 97%
05:00 +7°C° 0 mm 3 mps 755 mmHg 93%
06:00 +7°C° 0 mm 4 mps 755 mmHg 89%
07:00 +8°C° 0 mm 5 mps 755 mmHg 86%
08:00 +9°C° 0.1 mm 5 mps 755 mmHg 78%
09:00 +12°C° 0.1 mm 5 mps 755 mmHg 71%
10:00 +13°C° 0.1 mm 6 mps 754 mmHg 64%
11:00 +13°C° 0.1 mm 6 mps 754 mmHg 61%
12:00 +14°C° 0.1 mm 6 mps 754 mmHg 58%
13:00 +14°C° 0.1 mm 5 mps 754 mmHg 54%
14:00 +15°C° 0 mm 5 mps 753 mmHg 55%
15:00 +15°C° 0 mm 5 mps 753 mmHg 55%
16:00 +15°C° 0 mm 4 mps 753 mmHg 55%
17:00 +14°C° 0.1 mm 4 mps 752 mmHg 62%
18:00 +13°C° 0.1 mm 3 mps 752 mmHg 70%
19:00 +13°C° 0.1 mm 2 mps 752 mmHg 77%
20:00 +12°C° 0.2 mm 2 mps 751 mmHg 82%
21:00 +10°C° 0.2 mm 3 mps 751 mmHg 86%
22:00 +10°C° 0.2 mm 3 mps 751 mmHg 91%
23:00 +9°C° 0.2 mm 3 mps 750 mmHg 90%
Mostrar más

Necesitamos Su Consentimiento

Meteoprog y nuestros Proveedores de Servicios pueden almacenar y acceder a sus datos personales como cookies, identificadores de dispositivo u otras tecnologías similares de su dispositivo y procesar dichos datos para personalizar contenido y anuncios, además de ofrecer funciones de redes sociales y analizar el tráfico.

  • Almacenar y/o acceder a información en su dispositivo

    Se puede almacenar o acceder a cookies, identificadores de dispositivo u otra información de su dispositivo para los fines anteriormente indicados.

  • Anuncios y contenido personalizados, medición de anuncios y contenido, percepciones del público, y desarrollo de productos

    Los anuncios y el contenido pueden personalizarse en base a su perfil. Se pueden añadir más datos para personalizar mejor los anuncios y contenidos. Se puede medir el rendimiento de los anuncios y contenidos. Se puede obtener la percepción sobre el público que ha visto los anuncios y contenidos. Dichos datos pueden usarse para desarrollar o mejorar la experiencia del usuario, sistemas y software.

Al hacer clic en ‘Estoy De Acuerdo’ usted permitirá el uso de las cookies, identificadores de dispositivo, balizas web u otras tecnologías similares indicadas. Su configuración puede cambiarse desde el navegador de su dispositivo.

Para ciertos fines, los intereses legítimos pueden ser considerados por encima del consentimiento. Puede leer más sobre ello en nuestra Política de Privacidad y Cookies.